Year,Month,Day,Hour,Minute,Value (Times are PST for windgust in km/hr)
2017,06,07,08,12,1.60
2017,06,07,08,13,1.60
2017,06,07,08,17,1.60
2017,06,07,08,25,1.60
2017,06,07,08,36,1.60
2017,06,07,08,37,1.60
2017,06,07,08,45,1.60
2017,06,07,09,18,1.60
2017,06,07,09,29,1.60
2017,06,07,09,30,1.60
2017,06,07,09,31,1.60
2017,06,07,09,32,6.40
2017,06,07,09,33,6.40
2017,06,07,09,34,6.40
2017,06,07,09,37,1.60
2017,06,07,09,39,4.80
2017,06,07,09,40,8.10
2017,06,07,09,41,8.10
2017,06,07,09,42,8.10
2017,06,07,09,43,9.60
2017,06,07,09,44,9.60
2017,06,07,09,45,8.10
2017,06,07,09,46,6.40
2017,06,07,09,47,9.60
2017,06,07,09,48,9.60
2017,06,07,09,49,4.80
2017,06,07,09,50,8.10
2017,06,07,09,51,6.40
2017,06,07,09,52,6.40
2017,06,07,09,53,9.60
2017,06,07,09,54,9.60
2017,06,07,09,55,6.40
2017,06,07,09,56,4.80
2017,06,07,09,57,3.20
2017,06,07,10,00,3.20
2017,06,07,10,03,1.60
2017,06,07,10,04,6.40
2017,06,07,10,05,8.10
2017,06,07,10,06,6.40
2017,06,07,10,07,4.80
2017,06,07,10,08,4.80
2017,06,07,10,10,3.20
2017,06,07,10,11,3.20
2017,06,07,10,12,4.80
2017,06,07,10,13,6.40
2017,06,07,10,14,6.40
2017,06,07,10,15,4.80
2017,06,07,10,16,4.80
2017,06,07,10,17,8.10
2017,06,07,10,18,8.10
2017,06,07,10,19,6.40
2017,06,07,10,20,4.80
2017,06,07,10,21,9.60
2017,06,07,10,22,6.40
2017,06,07,10,23,6.40
2017,06,07,10,24,6.40
2017,06,07,10,26,1.60
2017,06,07,10,27,4.80
2017,06,07,10,28,6.40
2017,06,07,10,29,6.40
2017,06,07,10,30,8.10
2017,06,07,10,31,8.10
2017,06,07,10,32,8.10
2017,06,07,10,33,9.60
2017,06,07,10,34,8.10
2017,06,07,10,35,6.40
2017,06,07,10,36,6.40
2017,06,07,10,37,12.90
2017,06,07,10,38,14.50
2017,06,07,10,39,16.10
2017,06,07,10,40,14.50
2017,06,07,10,41,17.70
2017,06,07,10,42,11.30
2017,06,07,10,43,9.60
2017,06,07,10,44,11.30
2017,06,07,10,45,16.10
2017,06,07,10,46,9.60
2017,06,07,10,47,12.90
2017,06,07,10,48,11.30
2017,06,07,10,49,11.30
2017,06,07,10,50,11.30
2017,06,07,10,51,11.30
2017,06,07,10,52,11.30
2017,06,07,10,53,11.30
2017,06,07,10,54,9.60
2017,06,07,10,55,11.30
2017,06,07,10,56,11.30
2017,06,07,10,57,11.30
2017,06,07,10,58,9.60
2017,06,07,10,59,9.60
2017,06,07,11,00,11.30
2017,06,07,11,01,11.30
2017,06,07,11,02,9.60
2017,06,07,11,03,9.60
2017,06,07,11,04,11.30
2017,06,07,11,05,14.50
2017,06,07,11,06,9.60
2017,06,07,11,07,9.60
2017,06,07,11,08,9.60
2017,06,07,11,09,6.40
2017,06,07,11,10,9.60
2017,06,07,11,11,11.30
2017,06,07,11,12,12.90
2017,06,07,11,13,14.50
2017,06,07,11,14,11.30
2017,06,07,11,15,16.10
2017,06,07,11,16,9.60
2017,06,07,11,17,11.30
2017,06,07,11,18,9.60
2017,06,07,11,19,9.60
2017,06,07,11,20,11.30
2017,06,07,11,21,14.50
2017,06,07,11,22,16.10
2017,06,07,11,23,14.50
2017,06,07,11,24,16.10
2017,06,07,11,25,12.90
2017,06,07,11,26,19.30
2017,06,07,11,27,19.30
2017,06,07,11,28,16.10
2017,06,07,11,29,17.70
2017,06,07,11,30,19.30
2017,06,07,11,31,16.10
2017,06,07,11,32,17.70
2017,06,07,11,33,16.10
2017,06,07,11,34,14.50
2017,06,07,11,35,14.50
2017,06,07,11,36,14.50
2017,06,07,11,37,9.60
2017,06,07,11,38,14.50
2017,06,07,11,39,11.30
2017,06,07,11,40,16.10
2017,06,07,11,41,14.50
2017,06,07,11,42,16.10
2017,06,07,11,43,14.50
2017,06,07,11,44,16.10
2017,06,07,11,45,16.10
2017,06,07,11,46,16.10
2017,06,07,11,47,14.50
2017,06,07,11,48,17.70
2017,06,07,11,49,17.70
2017,06,07,11,50,16.10
2017,06,07,11,51,14.50
2017,06,07,11,52,14.50
2017,06,07,11,53,16.10
2017,06,07,11,54,14.50
2017,06,07,11,55,16.10
2017,06,07,11,56,14.50
2017,06,07,11,57,14.50
2017,06,07,11,58,14.50
2017,06,07,11,59,11.30
2017,06,07,12,00,9.60
2017,06,07,12,01,9.60
2017,06,07,12,02,11.30
2017,06,07,12,03,8.10
2017,06,07,12,04,11.30
2017,06,07,12,05,9.60
2017,06,07,12,06,14.50
2017,06,07,12,07,16.10
2017,06,07,12,08,9.60
2017,06,07,12,09,9.60
2017,06,07,12,10,11.30
2017,06,07,12,11,11.30
2017,06,07,12,12,11.30
2017,06,07,12,13,11.30
2017,06,07,12,14,11.30
2017,06,07,12,15,9.60
2017,06,07,12,16,8.10
2017,06,07,12,17,9.60
2017,06,07,12,18,9.60
2017,06,07,12,19,12.90
2017,06,07,12,20,11.30
2017,06,07,12,21,8.10
2017,06,07,12,22,14.50
2017,06,07,12,23,9.60
2017,06,07,12,24,8.10
2017,06,07,12,25,8.10
2017,06,07,12,26,9.60
2017,06,07,12,27,9.60
2017,06,07,12,28,9.60
2017,06,07,12,29,8.10
2017,06,07,12,30,6.40
2017,06,07,12,31,6.40
2017,06,07,12,32,8.10
2017,06,07,12,33,9.60
2017,06,07,12,34,9.60
2017,06,07,12,35,9.60
2017,06,07,12,36,9.60
2017,06,07,12,37,9.60
2017,06,07,12,38,11.30
2017,06,07,12,39,11.30
2017,06,07,12,40,8.10
2017,06,07,12,41,9.60
2017,06,07,12,42,9.60
2017,06,07,12,43,9.60
2017,06,07,12,44,9.60
2017,06,07,12,45,11.30
2017,06,07,12,46,9.60
2017,06,07,12,47,8.10
2017,06,07,12,48,9.60
2017,06,07,12,49,9.60
2017,06,07,12,50,9.60
2017,06,07,12,51,11.30
2017,06,07,12,52,12.90
2017,06,07,12,53,9.60
2017,06,07,12,54,9.60
2017,06,07,12,55,11.30
2017,06,07,12,56,11.30
2017,06,07,12,57,8.10
2017,06,07,12,58,11.30
2017,06,07,12,59,11.30
2017,06,07,13,00,12.90
2017,06,07,13,01,11.30
2017,06,07,13,02,14.50
2017,06,07,13,03,14.50
2017,06,07,13,04,16.10
2017,06,07,13,05,9.60
2017,06,07,13,06,14.50
2017,06,07,13,07,9.60
2017,06,07,13,08,9.60
2017,06,07,13,09,9.60
2017,06,07,13,10,9.60
2017,06,07,13,11,8.10
2017,06,07,13,12,9.60
2017,06,07,13,13,11.30
2017,06,07,13,14,9.60
2017,06,07,13,15,9.60
2017,06,07,13,16,8.10
2017,06,07,13,17,9.60
2017,06,07,13,18,9.60
2017,06,07,13,19,14.50
2017,06,07,13,20,16.10
2017,06,07,13,21,16.10
2017,06,07,13,22,17.70
2017,06,07,13,23,16.10
2017,06,07,13,24,17.70
2017,06,07,13,25,17.70
2017,06,07,13,26,19.30
2017,06,07,13,27,17.70
2017,06,07,13,28,16.10
2017,06,07,13,29,16.10
2017,06,07,13,30,17.70
2017,06,07,13,31,16.10
2017,06,07,13,32,17.70
2017,06,07,13,33,16.10
2017,06,07,13,34,16.10
2017,06,07,13,35,14.50
2017,06,07,13,36,11.30
2017,06,07,13,37,12.90
2017,06,07,13,38,9.60
2017,06,07,13,39,9.60
2017,06,07,13,40,9.60
2017,06,07,13,41,9.60
2017,06,07,13,42,14.50
2017,06,07,13,43,9.60
2017,06,07,13,44,8.10
2017,06,07,13,45,9.60
2017,06,07,13,46,8.10
2017,06,07,13,47,9.60
2017,06,07,13,48,4.80
2017,06,07,13,49,11.30
2017,06,07,13,50,14.50
2017,06,07,13,51,12.90
2017,06,07,13,52,11.30
2017,06,07,13,53,9.60
2017,06,07,13,54,9.60
2017,06,07,13,55,9.60
2017,06,07,13,56,9.60
2017,06,07,13,57,9.60
2017,06,07,13,58,8.10
2017,06,07,13,59,8.10
2017,06,07,14,00,6.40
2017,06,07,14,01,8.10
2017,06,07,14,02,11.30
2017,06,07,14,03,11.30
2017,06,07,14,04,8.10
2017,06,07,14,05,6.40
2017,06,07,14,06,9.60
2017,06,07,14,07,11.30
2017,06,07,14,08,9.60
2017,06,07,14,09,8.10
2017,06,07,14,10,9.60
2017,06,07,14,11,9.60
2017,06,07,14,12,9.60
2017,06,07,14,13,9.60
2017,06,07,14,14,8.10
2017,06,07,14,15,8.10
2017,06,07,14,16,9.60
2017,06,07,14,17,8.10
2017,06,07,14,18,9.60
2017,06,07,14,19,8.10
2017,06,07,14,20,6.40
2017,06,07,14,21,9.60
2017,06,07,14,22,8.10
2017,06,07,14,23,9.60
2017,06,07,14,24,9.60
2017,06,07,14,25,9.60
2017,06,07,14,26,11.30
2017,06,07,14,27,9.60
2017,06,07,14,28,9.60
2017,06,07,14,29,9.60
2017,06,07,14,30,11.30
2017,06,07,14,31,9.60
2017,06,07,14,32,9.60
2017,06,07,14,33,8.10
2017,06,07,14,34,8.10
2017,06,07,14,35,6.40
2017,06,07,14,36,8.10
2017,06,07,14,37,9.60
2017,06,07,14,38,8.10
2017,06,07,14,39,4.80
2017,06,07,14,40,4.80
2017,06,07,14,41,6.40
2017,06,07,14,42,8.10
2017,06,07,14,43,8.10
2017,06,07,14,44,4.80
2017,06,07,14,45,8.10
2017,06,07,14,46,8.10
2017,06,07,14,47,8.10
2017,06,07,14,48,8.10
2017,06,07,14,49,6.40
2017,06,07,14,50,6.40
2017,06,07,14,51,6.40
2017,06,07,14,52,8.10
2017,06,07,14,53,6.40
2017,06,07,14,54,8.10
2017,06,07,14,55,6.40
2017,06,07,14,56,8.10
2017,06,07,14,57,14.50
2017,06,07,14,58,14.50
2017,06,07,14,59,12.90
2017,06,07,15,00,12.90
2017,06,07,15,01,11.30
2017,06,07,15,02,9.60
2017,06,07,15,03,9.60
2017,06,07,15,04,11.30
2017,06,07,15,05,8.10
2017,06,07,15,06,9.60
2017,06,07,15,07,9.60
2017,06,07,15,08,8.10
2017,06,07,15,09,11.30
2017,06,07,15,10,14.50
2017,06,07,15,11,11.30
2017,06,07,15,12,8.10
2017,06,07,15,13,11.30
2017,06,07,15,14,11.30
2017,06,07,15,15,8.10
2017,06,07,15,16,11.30
2017,06,07,15,17,9.60
2017,06,07,15,18,8.10
2017,06,07,15,19,11.30
2017,06,07,15,20,11.30
2017,06,07,15,21,9.60
2017,06,07,15,22,8.10
2017,06,07,15,23,11.30
2017,06,07,15,24,11.30
2017,06,07,15,25,16.10
2017,06,07,15,26,11.30
2017,06,07,15,27,14.50
2017,06,07,15,28,11.30
2017,06,07,15,29,11.30
2017,06,07,15,30,16.10
2017,06,07,15,31,8.10
2017,06,07,15,32,14.50
2017,06,07,15,33,9.60
2017,06,07,15,34,8.10
2017,06,07,15,35,9.60
2017,06,07,15,36,12.90
2017,06,07,15,37,14.50
2017,06,07,15,38,11.30
2017,06,07,15,39,8.10
2017,06,07,15,40,6.40
2017,06,07,15,41,9.60
2017,06,07,15,42,8.10
2017,06,07,15,43,11.30
2017,06,07,15,44,9.60
2017,06,07,15,45,9.60
2017,06,07,15,46,8.10
2017,06,07,15,47,8.10
2017,06,07,15,48,9.60
2017,06,07,15,49,11.30
2017,06,07,15,50,11.30
2017,06,07,15,51,11.30
2017,06,07,15,52,11.30
2017,06,07,15,53,11.30
2017,06,07,15,54,11.30
2017,06,07,15,55,9.60
2017,06,07,15,56,14.50
2017,06,07,15,57,9.60
2017,06,07,15,58,11.30
2017,06,07,15,59,14.50
2017,06,07,16,00,11.30
2017,06,07,16,01,11.30
2017,06,07,16,02,12.90
2017,06,07,16,03,9.60
2017,06,07,16,04,12.90
2017,06,07,16,05,16.10
2017,06,07,16,06,9.60
2017,06,07,16,07,14.50
2017,06,07,16,08,16.10
2017,06,07,16,09,16.10
2017,06,07,16,10,9.60
2017,06,07,16,11,16.10
2017,06,07,16,12,11.30
2017,06,07,16,13,11.30
2017,06,07,16,14,16.10
2017,06,07,16,15,14.50
2017,06,07,16,16,11.30
2017,06,07,16,17,9.60
2017,06,07,16,18,8.10
2017,06,07,16,19,8.10
2017,06,07,16,20,14.50
2017,06,07,16,21,11.30
2017,06,07,16,22,8.10
2017,06,07,16,23,11.30
2017,06,07,16,24,9.60
2017,06,07,16,25,9.60
2017,06,07,16,26,9.60
2017,06,07,16,27,11.30
2017,06,07,16,28,14.50
2017,06,07,16,29,11.30
2017,06,07,16,30,9.60
2017,06,07,16,31,17.70
2017,06,07,16,32,17.70
2017,06,07,16,33,19.30
2017,06,07,16,34,19.30
2017,06,07,16,35,16.10
2017,06,07,16,36,11.30
2017,06,07,16,37,8.10
2017,06,07,16,38,9.60
2017,06,07,16,39,11.30
2017,06,07,16,40,4.80
2017,06,07,16,41,6.40
2017,06,07,16,42,8.10
2017,06,07,16,43,9.60
2017,06,07,16,44,12.90
2017,06,07,16,45,16.10
2017,06,07,16,46,14.50
2017,06,07,16,47,14.50
2017,06,07,16,48,17.70
2017,06,07,16,49,16.10
2017,06,07,16,50,8.10
2017,06,07,16,51,11.30
2017,06,07,16,52,11.30
2017,06,07,16,53,11.30
2017,06,07,16,54,11.30
2017,06,07,16,55,9.60
2017,06,07,16,56,11.30
2017,06,07,16,57,8.10
2017,06,07,16,58,12.90
2017,06,07,16,59,11.30
2017,06,07,17,00,16.10
2017,06,07,17,01,12.90
2017,06,07,17,02,16.10
2017,06,07,17,03,6.40
2017,06,07,17,04,16.10
2017,06,07,17,05,17.70
2017,06,07,17,06,16.10
2017,06,07,17,07,8.10
2017,06,07,17,08,16.10
2017,06,07,17,09,12.90
2017,06,07,17,10,11.30
2017,06,07,17,11,11.30
2017,06,07,17,12,19.30
2017,06,07,17,13,17.70
2017,06,07,17,14,14.50
2017,06,07,17,15,14.50
2017,06,07,17,16,17.70
2017,06,07,17,17,16.10
2017,06,07,17,18,22.50
2017,06,07,17,19,22.50
2017,06,07,17,20,22.50
2017,06,07,17,21,17.70
2017,06,07,17,22,22.50
2017,06,07,17,23,19.30
2017,06,07,17,24,16.10
2017,06,07,17,25,11.30
2017,06,07,17,26,14.50
2017,06,07,17,27,16.10
2017,06,07,17,28,16.10
2017,06,07,17,29,11.30
2017,06,07,17,30,9.60
2017,06,07,17,31,11.30
2017,06,07,17,32,9.60
2017,06,07,17,33,11.30
2017,06,07,17,34,9.60
2017,06,07,17,35,11.30
2017,06,07,17,36,8.10
2017,06,07,17,37,3.20
2017,06,07,17,38,1.60
2017,06,07,17,39,4.80
2017,06,07,17,40,1.60
2017,06,07,17,41,8.10
2017,06,07,17,42,6.40
2017,06,07,17,43,4.80
2017,06,07,17,44,4.80
2017,06,07,17,45,4.80
2017,06,07,17,46,6.40
2017,06,07,17,47,6.40
2017,06,07,17,48,4.80
2017,06,07,17,49,4.80
2017,06,07,17,50,3.20
2017,06,07,17,51,6.40
2017,06,07,17,52,11.30
2017,06,07,17,53,9.60
2017,06,07,17,54,9.60
2017,06,07,17,55,8.10
2017,06,07,17,56,8.10
2017,06,07,17,57,9.60
2017,06,07,17,58,3.20
2017,06,07,17,59,4.80
2017,06,07,18,00,8.10
2017,06,07,18,01,4.80
2017,06,07,18,02,8.10
2017,06,07,18,03,8.10
2017,06,07,18,04,9.60
2017,06,07,18,05,9.60
2017,06,07,18,06,8.10
2017,06,07,18,07,6.40
2017,06,07,18,08,8.10
2017,06,07,18,09,9.60
2017,06,07,18,10,8.10
2017,06,07,18,11,8.10
2017,06,07,18,12,4.80
2017,06,07,18,13,6.40
2017,06,07,18,14,6.40
2017,06,07,18,15,8.10
2017,06,07,18,16,6.40
2017,06,07,18,17,6.40
2017,06,07,18,18,6.40
2017,06,07,18,23,4.80
2017,06,07,18,24,1.60
2017,06,07,18,25,3.20
2017,06,07,18,26,4.80
2017,06,07,18,27,4.80
2017,06,07,18,28,6.40
2017,06,07,18,29,4.80
2017,06,07,18,30,3.20
2017,06,07,18,31,6.40
2017,06,07,18,32,6.40
2017,06,07,18,33,4.80
2017,06,07,18,34,4.80
2017,06,07,18,35,3.20
2017,06,07,19,37,4.80
2017,06,07,19,38,8.10
2017,06,07,19,39,6.40
2017,06,07,19,40,3.20
2017,06,07,19,41,4.80
2017,06,07,22,13,6.40
2017,06,07,22,15,6.40
2017,06,07,22,16,9.60
2017,06,07,22,17,9.60
2017,06,07,22,18,9.60
2017,06,07,22,19,9.60
2017,06,07,22,20,8.10
2017,06,07,22,21,8.10
2017,06,07,22,22,9.60
2017,06,07,22,23,11.30
2017,06,07,22,24,8.10
2017,06,07,22,25,1.60
2017,06,07,22,30,3.20
2017,06,07,22,31,3.20
2017,06,07,22,32,11.30
2017,06,07,22,33,9.60
2017,06,07,22,34,9.60
2017,06,07,22,35,6.40
2017,06,07,22,36,9.60
2017,06,07,22,37,9.60
2017,06,07,22,38,6.40
2017,06,07,22,39,3.20
2017,06,07,22,40,3.20
2017,06,07,22,41,3.20
2017,06,07,23,15,1.60
2017,06,07,23,16,4.80
2017,06,07,23,29,1.60
